TITAN 4 CENTAUR R/B, 27169

Orbit data source: Space-Track

TITAN 4 CENTAUR R/B, 27169 is space debris in GEO originally from a launch on Mon, 14 Jan 2002 UTC launched from the Air Force Eastern Test Range (AFETR). Debris objects in space refer to the collection of defunct objects orbiting the Earth. Examples of debris include non-operational satellites, rocket bodies, and fragments generated from explosions, collisions, or faulty payload assembly.

Not visible in the next 10 days
TITAN 4 CENTAUR R/B details
Identifier
27169, 2002-001B
Orbit
GEO
Last TLE update16 hours ago
Origin
Flag of USUSAF SMC (US)
ManufacturerLMA
MissionSpacecraft
Bus & MotorCENTAUR T, RL-10 X2
Mass~1,840 kg wet, ~1,840 kg dry
Launch date (UTC)
2002-01-14 (23 years ago)
Launch vehicleUnknown
Launch site
Air Force Eastern Test Range (AFETR)
Object type
Payload
Rocket body
Debris
Shape & HBRCyl, 9 m
Radar Cross Section37.970 m²

Expand to show TLE details & history

TLE from 16 hours ago
0 TITAN 4 CENTAUR R/B
1 27169U 02001B   24355.84246533 -.00000024  00000-0  00000-0 0  9999
2 27169   9.3566  32.7154 0051013 123.3357 237.1354  1.00211621 20935
Epoch: 2024-12-20T20:13Z
Definitive object data (Epoch: 2024-12-20T20:13:09.004Z)
Latitude
Longitude-0.48957°
Altitude35,919.549 km
Speed3.066 km/s
True Right ascension02h 10m 48s
True Declination0° 00' 00"
Sunlit
Object was in daylight at TLE epoch
Visualization TLE readout
Latitude-8.72594°
Longitude-112.19152°
Altitude35,928.122 km
Speed3.065 km/s
Apparent Right ascension19h 09m 01s
Apparent Declination-13° 35' 29"
Sunlit
Object is in daylight
Visualization observer readout
Local Sidereal Time11:43:15
Azimuth86.977° E
Elevation-25.046°
Doppler factor1
Orbital elements
Apogee altitude36,019.684 km
Perigee altitude35,589.312 km
Semi-major axis42,182.635 km
Eccentricity0.0051013
Inclination9.3566°
RAAN32.7154°
Arg. of periapsis123.3357°
True anomaly236.64609°
Mean anomaly237.1354°
Eccentric anomaly236.89058°
Mean motion0.25052 °/min
BSTARUnknown
Orbital period1437.01 mins
Loading historical data...
27169 neighbors
Authenticating...
Loading maneuver chart data...
Loading historical data...
Loading historical data...
Loading historical data...
Loading historical data...
Loading historical data...
Loading historical data...
Loading historical data...
Other satellites on launch #1 in the year 2002 (2002-01-14 UTC)

TITAN 4 CENTAUR R/B Visibility forecast

Observer location: undefined°, undefined

TITAN 4 CENTAUR R/B is not visible in the next 10 days
Span
Click to sort rows by Start time (UTC) header in descending order
Start Az.
Max El. time (UTC)
Max El. Az.
Max El.
End time (UTC)
End Az.
|